{"data":{"norad_id":59874,"epoch":"2026-09-21T16:43:47.117568Z","epoch_age_seconds":71061,"freshness":"FRESH","line1":"1 59874U 24098S   26264.69707312  .00000429  00000+0  25102-4 0  9999","line2":"2 59874  43.0032 250.9931 0001365 272.1101  87.9595 15.27580022131825","mean_motion":15.27580022,"eccentricity":0.0001365,"inclination_deg":43.0032,"raan_deg":250.9931,"arg_perigee_deg":272.1101,"mean_anomaly_deg":87.9595,"bstar":2.5102e-5,"rev_number":13182,"period_min":94.266747356035,"perigee_km":482.11247827062,"apogee_km":483.98558205686,"semimajor_km":6861.1860301637,"source":"CELESTRAK","updated_at":"2026-09-22T09:00:49.103694Z"}}